Retour au catalogue

CZ-6A DEB

ActifPO
NORAD 54904·DEBRIS·🇨🇳 China

Lancé Nov 11, 2022 depuis Taiyuan Satellite Launch Center

Loading…

Prochains Passages (prochaines 24 heures)

TLE

FraisSource: Space-Track

Époque: Sep 13, 2026, 19:59 UTC

1 54904U 22151QR  26256.83311837  .00005657  00000-0  12336-2 0  9998
2 54904  99.0680  18.2792 0082279 125.1017 235.7927 14.56226197201663

Suivez CZ-6A DEB en temps réel avec AllMySat

Download on the App Store